Location: The Saddle
(36.8333°N, 80.3417°W)
Time: 07:09:29
(UTC-05:00)

Vanguard 3 - Pass Details

Date: 16 February 2026
Orbit: 507 x 3205 km, 33.3° (Epoch: 5 March)

Event Time Altitude Azimuth Distance (km) Brightness Sun altitude
Rises 19:45:30 0° 269° (W) 3,895 12.2 -21.2°
Reaches altitude 10° 19:48:50 10° 265° (W) 2,564 10.9 -21.8°
Maximum altitude 19:54:18 54° 189° (S) 785 7.0 -22.9°
Enters shadow 19:54:49 50° 162° (SSE) 795 6.9 -23.0°
